This demonstration page uses our WeatherBlox Daily Observations layout. Learn more.

Left ArrowRight Arrow

41.86663, -103.66717

Hourly Observations for February 26, 2015

Temp ( °F °C ) Dew Point ( °F °C ) Humidity (%) Winds ( mph kmh ) Pressure ( in mb ) Visibility ( mi km ) Precip ( " mm )
12:53 am 00:53 Cloudy 14 -10 7 -13.9 73 73 NNE 9 15 30.38 1029 10 16.0934 N/A
1:53 am 01:53 Cloudy 14 -10 6 -14.4 71 71 N 8 13 30.38 1029 10 16.0934 N/A
2:23 am 02:23 Cloudy 14 -10 6 -14.4 71 71 N 7 11 30.56 1035 10 16.0934 N/A
2:53 am 02:53 Cloudy 13 -10.6 6 -14.4 74 74 N 7 11 30.38 1029 10 16.0934 N/A
3:53 am 03:53 Cloudy 12 -11.1 4 -15.6 70 70 N 10 17 30.4 1029 10 16.0934 N/A
4:53 am 04:53 Partly Cloudy 10 -12.2 2 -16.7 69 69 N 9 15 30.41 1030 10 16.0934 N/A
5:53 am 05:53 Cloudy 10 -12.2 2 -16.7 69 69 NE 9 15 30.43 1030 10 16.0934 N/A
6:53 am 06:53 Cloudy 8 -13.3 2 -16.7 76 76 N 9 15 30.46 1032 10 16.0934 N/A
7:53 am 07:53 Cloudy 10 -12.2 3 -16.1 73 73 NNE 12 19 30.48 1032 10 16.0934 N/A
8:53 am 08:53 Cloudy 12 -11.1 3 -16.1 67 67 NE 6 9 30.48 1032 7 11.26538 N/A
9:53 am 09:53 Cloudy 14 -10 2 -16.7 58 58 N 8 13 30.49 1033 10 16.0934 N/A
10:53 am 10:53 Cloudy 15 -9.4 2 -16.7 56 56 N 10 17 30.49 1033 10 16.0934 N/A
11:53 am 11:53 Cloudy 15 -9.4 2 -16.7 56 56 N 9 15 30.49 1033 10 16.0934 N/A
12:51 pm 12:51 Cloudy with Light Snow 18 -8 3 -16 53 53 VRB 6 9 30.56 1035 2 3.21868 N/A
12:53 pm 12:53 Cloudy with Light Snow 16 -8.9 4 -15.6 59 59 VRB 3 6 30.47 1032 2 3.21868 N/A
1:03 pm 13:03 Cloudy with Light Snow 16 -9 3 -16 57 57 NNE 7 11 30.56 1035 3 4.82802 N/A
1:46 pm 13:46 Cloudy 17 -8.3 4 -15.6 56 56 VRB 6 9 30.5 1033 10 16.0934 N/A
1:53 pm 13:53 Cloudy 17 -8.3 3 -16.1 54 54 VRB 3 6 30.45 1031 10 16.0934 N/A
2:53 pm 14:53 Cloudy 17 -8.3 2 -16.7 51 51 E 6 9 30.45 1031 10 16.0934 N/A
3:53 pm 15:53 Cloudy with Light Snow 16 -8.9 7 -13.9 67 67 E 9 15 30.46 1032 4 6.43736 N/A
4:17 pm 16:17 Cloudy with Light Snow 16 -9 9 -13 73 73 E 12 19 30.53 1034 2.5 4.02335 N/A
4:23 pm 16:23 Cloudy with Light Snow 15 -9.4 7 -13.9 70 70 E 13 20 30.53 1034 3 4.82802 N/A
4:53 pm 16:53 Cloudy 15 -9.4 6 -14.4 67 67 E 9 15 30.47 1032 8 12.87472 N/A
5:27 pm 17:27 Cloudy 13 -10.6 5 -15 70 70 E 12 19 30.59 1036 9 14.48406 N/A
5:38 pm 17:38 Partly Cloudy 12 -11 3 -16 67 67 E 12 19 30.59 1036 10 16.0934 N/A
5:53 pm 17:53 Mostly Cloudy 13 -10.6 3 -16.1 64 64 E 10 17 30.49 1032 10 16.0934 N/A
6:53 pm 18:53 Partly Cloudy 10 -12.2 2 -16.7 69 69 ENE 14 22 30.51 1033 10 16.0934 N/A
7:53 pm 19:53 Cloudy 9 -12.8 1 -17.2 70 70 E 10 17 30.51 1033 10 16.0934 N/A
8:53 pm 20:53 Cloudy 8 -13.3 N/A 69 69 E 7 11 30.51 1033 10 16.0934 N/A
9:53 pm 21:53 Cloudy 8 -13.3 N/A 69 69 ESE 10 17 30.5 1033 10 16.0934 N/A
10:53 pm 22:53 Cloudy 9 -12.8 N/A 66 66 ESE 13 20 30.48 1032 10 16.0934 N/A
11:46 pm 23:46 Cloudy with Haze 8 -13.3 2 -16.7 76 76 ESE 10 17 30.59 1036 5 8.0467 N/A
11:53 pm 23:53 Cloudy with Haze 8 -13.3 2 -16.7 76 76 SE 10 17 30.46 1032 6 9.65604 N/A

Powered by AerisWeather